Pagina principală
METAR-TAF:

METAR-TAF

Aeroporturi :

Lae, Papua-Noua Guinee

Latitudine: 6-34-11S, longitudine: 146-43-34E, elevație: 73 m

Observații meteo curente

Raportul a fost făcut în urmă cu 7 ore și 38 de minute, la 08:00 UTC
Vânt 15 kt de la Est/Nord-est cu rafale de până la 20 kt
Temperatură 27°C
Umiditate 79%
Presiune 1009 hPa
Vizibilitate de 10 km sau mai mult
Nori împrăștiați la o înălțime de 3500 picior
Nori fragmentați la o înălțime de 5000 picior

METAR: AYNZ 250800Z 07015G20KT 9999 SCT035 BKN050 27/23 Q1009

Ora: 01:38 (15:38 UTC)


TAF: lipsă

Observații și prognoze meteo pentru peste 4.000 de aeroporturi (rapoarte METAR și TAF).

Stațiile disponibile sunt reprezentate pe hartă prin puncte galbene și roșii.

Țineți indicatorul mouse-ului pe punctul dorit pentru a vedea denumirea stației.

Apoi, faceți clic pentru a vedea observațiile și prognozele meteorologice.

Pentru a schimba harta: Pentru mărire, faceți clic pe butoanele verzi cu cruce neagră; pentru micșorare, pe butonul verde cu o liniuță; pentru hărți învecinate, pe săgețile verzi.


METAR-TAF: